Regional Weather Roundup
Issued by NWS

Home | Current Version | Previous Version | Graphics & Text | Print | Product List | Glossary On
Versions: 1 2 3 4 5 6 7 8 9 10 11 12 13 14 15 16 17 18 19 20 21 22 23 24 25 26 27 28 29 30 31 32 33 34 35 36 37 38 39 40 41 42 43 44 45 46 47 48 49 50
000
ASUS45 KCYS 220110
RWRWY

WYOMING REGIONAL WEATHER ROUNDUP
NATIONAL WEATHER SERVICE CHEYENNE WY
700 PM MDT SUN SEP 21 2014

NOTE:  "FAIR" INDICATES FEW OR NO CLOUDS BELOW 12,000 FEET
WITH NO SIGNIFICANT WEATHER AND/OR OBSTRUCTIONS TO VISIBILITY.

WYZ001-220200-
YELLOWSTONE NATIONAL PARK

CITY           SKY/WX    TMP DP  RH WIND       PRES   REMARKS
LK YELLOWSTONE   N/A     58  47  66 CALM      30.33S
W YELLOWSTONE  NOT AVBL

$$
WYZ002>013-054>058-071-098>099-220200-
NORTHERN WYOMING

CITY           SKY/WX    TMP DP  RH WIND       PRES   REMARKS
JACKSON        CLOUDY    66  39  37 S6        30.23F
CODY             N/A    N/A N/A N/A MISG        N/A
GREYBULL       MOCLDY    75  41  29 CALM      30.11F
WORLAND        CLOUDY    69  50  50 E5        30.12F
SHERIDAN       MOCLDY    66  45  46 S5        30.15F
BUFFALO        MOCLDY    65  43  44 S6        30.23F
GILLETTE       PTCLDY    67  41  38 SE10      30.21F
HULETT         FAIR      61  39  44 MISG      30.25
NEWCASTLE      FAIR      64  36  34 SE7       30.26

$$
WYZ014>020-022>026-101>103-220200-
CENTRAL WYOMING

CITY           SKY/WX    TMP DP  RH WIND       PRES   REMARKS
BIG PINEY      LGT RAIN  54  51  90 N7        30.30F
PINEDALE       LGT RAIN  55  46  71 NW5       30.31F
DUBOIS         FAIR      59  34  38 SE8       30.30F
LANDER         CLOUDY    68  43  40 NW5       30.19F
RIVERTON       CLOUDY    70  37  29 NW5       30.20F
CASPER         PTCLDY    70  41  34 E13       30.21F
DOUGLAS        PTCLDY    66  41  40 SE16      30.26S

$$
WYZ021-027>030-104>119-220200-
SOUTHERN WYOMING

CITY           SKY/WX    TMP DP  RH WIND       PRES   REMARKS
EVANSTON       CLOUDY    52  49  89 E8        30.28F
KEMMERER       DRIZZLE   52  50  93 CALM      30.30F
FORT BRIDGER     N/A     53  51  95 W3        30.31F
ROCK SPRINGS   CLOUDY    62  45  53 SW26G32   30.30R
DIXON          FAIR      64  46  52 E10       30.29R
RAWLINS        CLOUDY    67  41  38 S5        30.29F
SARATOGA       MOCLDY    63  45  51 SE9       30.34R
LARAMIE        CLOUDY    56  47  71 SW16      30.40R
CHEYENNE       CLOUDY    65  43  44 SE10      30.33F
TORRINGTON     MOCLDY    66  41  40 E15       30.25R
PINE BLUFFS    FAIR      63  41  45 E10G16    30.32S

$$



USA.gov is the U.S. government's official web portal to all federal, state and local government web resources and services.